SCP
0 0 0 0 0 0 0 0 0 0 1 1 1 1 1 1 1 1 1 1 1 1 1 0 0 0 0 0 0 0 0 0 0 0 0 0 0 0 0 0 0 0 0
0 0 0 0 0 0 0 0 0 0 1 1 1 1 1 1 1 1 1 1 1 1 0 0 0 0 0 0 0 0 0 0 0 0 0 0 0 0 0 0 0 0 0
0 0 0 0 0 0 0 0 0 0 1 1 0 0 0 0 0 1 1 1 1 0 0 0 0 0 0 0 0 0 0 0 0 0 0 0 0 0 0 0 0 0 0
0 0 0 0 0 0 0 0 0 1 1 1 1 1 1 1 0 1 0 0 0 0 0 0 0 0 0 0 0 0 0 0 0 0 0 0 0 0 0 0 0 0 0
-0 -0 -0 -0 -0 0 0 0 1 1 1 1 0 0 0 0 0 0 0 0 0 0 0 0 0 0 0 0 0 0 0 0 0 0 0 0 0 0 0 0 0 0 0
0 -0 0 0 0 1 1 1 1 0 0 0 0 0 0 0 0 0 0 0 0 0 0 0 0 0 0 0 0 0 0 0 0 0 0 0 0 0 0 0 0 0 0
0 0 0 0 0 0 0 0 0 0 0 0 0 0 0 0 0 0 0 0 0 0 0 0 0 0 0 0 0 0 0 0 0 0 -0 -0 -0 0 0 0 0 0 0
0 0 0 0 0 0 0 0 0 0 0 0 0 0 0 0 0 0 0 0 0 0 0 0 0 0 0 0 0 0 0 0 0 0 -0 -0 -0 -0 0 0 0 0 0
0 0 0 0 0 0 0 0 0 0 0 0 0 0 0 0 0 0 0 0 0 0 0 0 0 0 0 0 0 0 0 0 0 0 -0 0 -0 0 0 0 0 0 0
0 0 0 0 0 0 0 0 0 0 0 0 0 0 0 0 0 0 0 0 0 0 0 0 0 0 0 0 0 0 0 0 0 -0 0 -0 -0 -0 -0 -0 0 0 0
0 0 0 0 -0 0 0 0 0 0 0 0 0 0 0 0 0 0 0 0 0 0 0 0 0 -0 0 0 0 0 0 -0 0 0 -0 -0 -0 -0 0 0 0 0 0
0 -0 -0 -0 -0 -0 -0 0 -0 -0 0 0 0 0 0 0 0 0 0 0 0 0 0 0 0 -0 0 0 0 0 0 0 0 0 -0 -0 0 0 0 0 0 0 0
-0 -0 -0 -0 -0 -0 -0 0 -0 -0 0 0 0 0 0 0 0 0 0 -0 -0 0 0 -0 -0 0 0 0 0 -0 0 0 -0 -0 -0 0 0 0 0 0 0 0 0
-0 0 -0 -0 -0 -0 0 -0 -0 -0 0 0 0 0 -0 0 0 0 0 -0 -0 0 0 -0 -0 0 0 0 0 0 0 -0 -0 -0 -0 0 0 0 0 0 0 0 0
-0 -0 -0 -0 -0 -0 0 -0 -0 0 -0 0 0 -0 0 0 0 -0 -0 -0 0 0 -0 -0 0 -0 -0 -0 -0 0 0 0 0 0 -0 0 0 0 0 0 0 0 0
-0 -0 -0 -0 -0 -0 -0 -0 0 -0 -0 -0 0 0 -0 -0 -0 -0 -0 -0 0 -0 -0 0 0 -0 -0 -0 0 0 -0 0 0 0 0 0 0 0 0 0 0 0 0
-0 -0 -0 -0 -0 -0 -0 0 0 -0 0 0 0 -0 -0 -0 -0 0 0 0 0 -0 0 0 -0 -0 0 -0 -0 0 0 0 0 -0 0 0 0 0 0 0 0 0 0
0 0 -0 -0 0 0 0 0 0 -0 0 -0 -0 0 -0 -0 -0 -0 0 -0 0 -0 0 0 0 -0 0 -0 0 -0 0 0 0 0 0 0 0 0 0 0 0 0 0
0 0 -0 0 -0 0 0 0 0 -0 -0 -0 -0 -0 -0 -0 -0 0 -0 0 0 0 0 0 -0 -0 0 0 -0 -0 0 0 0 0 0 0 0 0 0 0 0 0 0
0 -0 -0 -0 -0 0 0 -0 0 -0 -0 -0 -0 -0 -0 -0 -0 -0 -0 0 0 0 0 0 -0 -0 0 0 -0 -0 0 0 0 0 0 0 0 0 0 0 0 0 0
0 -0 -0 -0 0 0 -0 -0 -0 -0 -0 -0 -0 -0 0 0 -0 -0 0 0 0 0 0 0 -0 -0 0 0 0 -0 0 0 0 0 0 0 0 0 0 0 0 0 0
0 0 0 0 0 -0 -0 -0 -0 -0 -0 0 -0 0 0 0 0 -0 0 0 0 0 0 0 0 0 -0 0 0 0 0 0 0 0 0 -0 -0 -0 0 0 -0 -0 0
0 0 0 0 0 0 -0 -0 0 -0 -0 -0 -0 0 0 0 0 0 0 0 0 0 0 0 0 0 0 0 -0 -0 0 0 0 0 -0 -0 0 0 -0 -0 0 0 0
0 0 0 0 0 0 0 -0 -0 -0 -0 -0 -0 0 0 0 0 0 0 0 0 0 0 0 0 0 0 0 -0 -0 0 0 0 0 0 0 0 0 0 -0 -0 0 0
0 0 0 0 0 0 0 0 0 -0 -0 -0 0 0 0 0 0 0 0 0 0 0 0 0 0 0 0 0 -0 0 0 0 0 0 0 -0 0 0 -0 -0 0 -0 -0
0 0 0 0 0 0 0 0 0 0 -0 -0 0 0 0 0 0 0 0 0 0 0 0 0 0 0 0 0 0 0 -0 0 0 0 0 -0 -0 -0 -0 -0 -0 -0 -0
Wind_Speed_500mb
84 92 91 91 79 59 55 58 52 57 60 60 62 71 73 82 84 73 52 52 48 48 46 36 34 37 32 29 31 37 42 44 36 35 37 41 43 45 45 43 40 33 36
75 74 68 52 61 63 59 54 48 52 63 66 65 74 76 78 70 56 48 45 46 44 38 31 39 35 32 32 35 40 41 38 30 31 32 26 35 43 47 40 41 39 35
77 76 73 72 67 65 64 59 58 48 59 64 73 76 68 59 56 52 50 48 45 37 33 35 34 33 31 36 37 41 38 29 23 23 19 9 13 14 39 45 33 33 36
77 73 64 71 65 68 61 57 56 52 56 56 70 76 66 55 56 56 53 56 43 44 41 36 33 31 33 36 38 26 23 24 24 24 27 18 7 6 4 31 35 31 33
82 75 67 68 76 75 73 44 49 52 50 55 60 55 51 53 51 49 42 44 35 42 33 34 33 30 36 32 22 20 19 19 22 27 28 31 25 12 11 4 20 38 32
50 63 68 75 56 42 29 36 45 42 37 32 34 39 43 53 52 46 42 33 35 39 36 30 30 32 23 17 15 13 11 13 14 18 27 31 33 36 24 17 6 25 33
54 55 51 31 23 17 26 32 30 29 25 26 27 29 40 46 42 40 34 37 35 27 28 28 28 20 15 11 10 9 14 13 10 12 14 25 30 26 29 26 14 24 24
51 35 19 16 23 29 31 33 31 31 32 33 36 36 37 38 35 32 31 30 29 23 23 18 15 12 13 10 10 13 15 17 12 12 13 20 27 27 25 22 26 14 28
28 24 24 31 35 35 33 31 35 40 38 38 38 36 36 34 34 33 30 25 21 18 12 12 12 10 7 6 9 11 13 14 15 13 12 15 21 24 24 24 18 24 26
33 34 40 42 38 36 37 38 39 43 42 41 42 40 38 36 33 29 22 19 16 13 15 15 13 10 8 8 13 15 16 15 14 13 13 19 23 23 22 26 28 25 29
50 51 49 44 42 42 43 47 51 49 47 42 39 36 33 29 23 21 21 17 15 15 21 18 11 6 8 12 18 20 17 16 15 16 16 18 24 24 20 22 23 26 30
59 56 54 49 49 52 55 57 53 47 40 34 29 28 23 20 17 21 22 18 18 16 20 16 6 11 12 17 25 25 21 17 18 16 19 19 22 27 23 24 26 28 32
58 57 54 56 60 60 58 54 49 43 39 40 33 27 22 20 17 19 18 20 19 23 19 9 8 11 16 18 19 13 11 18 16 19 21 23 24 24 22 22 27 29 31
62 59 58 61 60 59 55 50 46 40 42 35 26 27 21 12 10 22 19 12 26 22 9 7 6 11 14 13 3 2 7 13 18 22 22 23 21 22 21 23 26 28 28
63 62 63 61 61 59 55 49 47 48 45 37 28 25 20 11 10 26 19 23 29 16 10 7 5 10 11 6 7 3 6 11 13 16 21 17 15 12 17 18 25 29 39
59 63 64 62 63 60 56 49 52 47 41 40 29 24 18 17 21 20 22 31 23 17 12 7 4 11 10 7 5 5 4 4 11 15 20 17 20 22 17 14 19 31 48
64 66 65 64 60 58 53 51 52 43 39 38 29 14 24 22 22 26 26 26 17 16 12 7 3 10 11 11 8 5 6 6 13 12 20 31 27 14 16 19 28 40 43
61 65 63 60 56 51 51 50 46 39 35 36 26 19 25 22 23 22 23 25 19 16 14 9 2 7 10 9 8 7 5 11 18 19 20 19 14 15 29 43 47 49 64
57 61 60 59 57 53 53 52 47 41 35 33 22 23 26 20 30 28 21 23 21 19 17 10 6 9 11 9 7 9 10 15 21 19 22 12 25 26 40 52 57 61 56
52 63 63 62 59 57 56 53 49 44 41 32 24 21 25 24 21 19 20 20 21 19 17 13 9 7 4 4 6 10 9 17 24 26 18 28 38 37 41 54 60 62 69
58 66 66 65 62 61 56 54 52 47 40 32 27 24 24 22 22 17 15 17 20 21 19 15 9 4 5 2 6 9 6 10 30 30 29 37 43 41 49 53 52 57 57
70 69 64 66 63 61 58 55 54 39 35 35 31 26 25 23 19 14 15 16 18 21 22 19 16 10 8 8 10 11 8 15 36 37 36 44 45 37 53 47 45 42 50
74 66 63 68 66 64 59 52 45 40 37 36 31 27 23 20 16 8 17 17 16 14 20 19 17 15 12 13 14 14 14 20 33 37 39 43 43 45 46 46 44 43 51
72 65 65 70 68 65 58 45 42 42 38 39 32 30 27 22 13 9 15 11 9 11 17 21 19 20 15 18 19 20 22 29 39 42 44 43 43 42 42 41 49 45 50
64 67 68 71 67 65 56 47 43 44 39 42 36 33 31 23 16 9 16 9 5 3 3 14 15 17 17 19 18 17 28 31 40 46 46 44 44 48 46 46 50 46 51
37 52 68 70 62 62 53 46 44 43 36 47 43 38 34 27 20 9 21 15 8 4 6 7 7 8 15 19 19 20 29 29 34 46 49 48 47 49 57 53 56 53 52
Wind_Direction_500mb
278 285 285 285 285 272 278 276 260 248 250 235 232 233 238 241 241 242 233 228 219 225 223 213 225 237 255 271 270 278 285 284 281 271 264 263 255 248 240 234 234 233 227
279 282 290 283 273 273 270 262 243 241 241 233 235 234 238 238 239 235 222 217 216 222 206 211 226 243 263 271 282 286 286 284 274 265 267 265 259 247 238 234 231 231 227
272 281 282 281 279 274 258 251 256 250 238 239 237 235 236 235 224 216 212 204 205 213 215 225 226 247 268 278 279 285 280 277 265 252 238 226 245 262 225 225 227 228 224
274 277 278 286 288 286 282 260 245 237 234 235 236 235 233 217 210 205 191 193 199 204 208 216 233 255 274 276 281 267 265 264 257 245 232 228 257 235 216 220 228 228 226
268 271 278 286 286 283 283 260 235 223 230 234 231 226 223 211 196 186 197 190 183 191 206 223 242 261 272 270 251 257 260 262 259 247 241 231 229 239 241 212 216 220 219
270 280 280 282 281 275 259 222 212 215 218 220 216 213 209 198 179 182 185 181 182 194 209 228 248 262 257 238 245 238 256 259 258 248 235 232 235 236 243 238 266 207 212
285 280 277 273 259 220 188 188 182 174 173 175 177 180 192 196 195 185 188 189 196 216 231 245 259 242 233 238 237 243 253 263 273 275 256 235 230 235 240 244 235 203 198
269 254 235 201 168 158 154 154 155 155 155 156 161 172 183 183 180 185 190 199 205 220 242 253 222 225 226 245 239 253 258 256 259 260 259 234 221 221 222 227 229 198 207
222 205 175 161 153 148 155 155 151 146 150 159 162 168 172 171 175 181 183 194 218 227 230 209 194 209 198 207 240 253 272 257 244 245 241 229 205 205 222 218 227 235 203
182 169 157 156 152 151 147 147 148 147 152 156 156 156 158 167 175 180 191 201 213 210 190 168 166 178 214 253 271 275 273 254 237 238 237 226 215 220 223 218 222 222 230
168 162 156 154 151 149 150 150 149 149 150 151 151 152 158 169 178 188 188 185 173 160 155 154 159 190 260 283 283 282 267 248 231 231 232 221 213 216 229 228 222 220 220
163 160 155 154 152 149 151 152 152 153 155 154 151 154 165 171 178 190 183 175 160 159 169 165 193 270 278 285 289 282 255 243 230 221 212 216 215 216 222 235 234 218 209
158 157 155 157 152 152 154 155 155 154 147 138 136 144 144 150 160 169 168 169 163 157 155 176 225 270 302 298 293 279 261 231 219 214 214 217 214 221 231 234 223 207 204
158 160 158 158 156 158 158 158 155 151 148 143 147 151 146 164 154 167 159 182 162 158 167 176 249 298 317 322 328 241 235 218 222 214 209 210 221 233 221 211 213 195 196
159 165 163 160 161 161 160 159 154 149 154 157 158 151 157 173 187 165 167 164 156 162 159 191 298 338 343 7 49 194 207 209 217 223 204 197 202 225 202 205 193 195 172
164 168 166 163 165 165 165 161 160 164 168 177 167 157 176 159 155 169 177 165 160 161 181 177 16 5 7 5 54 131 103 198 195 167 168 177 171 150 136 160 187 172 171
170 171 171 170 169 169 167 165 164 175 187 189 170 177 164 156 169 151 150 162 166 174 180 188 12 6 9 19 16 32 80 122 157 158 152 151 148 139 161 161 152 161 162
178 176 174 174 173 170 168 164 170 180 192 184 171 175 165 166 171 174 179 178 174 182 184 208 299 347 351 13 27 23 112 116 142 148 158 151 148 155 161 152 149 154 152
195 181 177 172 169 168 166 174 182 190 188 172 175 172 170 169 173 179 189 183 187 196 199 224 265 321 327 357 38 72 101 131 131 126 143 146 137 146 160 146 144 158 144
209 192 183 179 176 173 172 177 184 184 175 177 165 160 180 175 173 186 193 190 193 208 213 224 253 301 306 22 70 95 101 139 138 137 120 125 135 146 147 147 153 152 154
212 200 189 186 182 179 179 187 191 187 182 177 163 167 171 173 179 189 192 194 206 215 217 217 232 238 179 102 116 110 97 151 148 140 131 129 141 136 145 147 149 153 159
204 201 193 196 188 185 188 192 192 184 186 174 169 182 174 182 183 192 185 188 203 214 220 221 218 204 182 160 147 125 102 134 152 147 141 139 145 147 156 152 151 156 156
204 199 197 200 192 192 192 191 188 180 190 182 185 185 179 187 196 203 184 191 204 221 211 203 197 190 175 168 160 141 125 136 153 149 142 145 147 151 156 165 160 157 158
195 199 199 198 193 195 193 192 186 182 194 191 192 195 190 182 179 177 188 209 214 200 194 189 193 189 185 174 164 153 150 149 152 150 147 151 158 154 162 166 172 164 163
190 197 195 195 193 193 192 188 188 191 198 197 197 200 195 189 174 181 185 171 130 83 135 187 197 202 195 176 166 163 159 158 162 156 156 159 165 170 169 175 178 177 174
170 190 191 193 192 192 190 190 194 195 199 200 201 201 198 197 186 173 186 174 153 126 125 134 164 166 171 165 158 157 161 160 166 169 170 171 173 176 176 177 180 183 184
Wind_Speed_850mb
84 92 91 91 79 59 55 58 52 57 60 60 62 71 73 82 84 73 52 52 48 48 46 36 34 37 32 29 31 37 42 44 36 35 37 41 43 45 45 43 40 33 36
75 74 68 52 61 63 59 54 48 52 63 66 65 74 76 78 70 56 48 45 46 44 38 31 39 35 32 32 35 40 41 38 30 31 32 26 35 43 47 40 41 39 35
77 76 73 72 67 65 64 59 58 48 59 64 73 76 68 59 56 52 50 48 45 37 33 35 34 33 31 36 37 41 38 29 23 23 19 9 13 14 39 45 33 33 36
77 73 64 71 65 68 61 57 56 52 56 56 70 76 66 55 56 56 53 56 43 44 41 36 33 31 33 36 38 26 23 24 24 24 27 18 7 6 4 31 35 31 33
82 75 67 68 76 75 73 44 49 52 50 55 60 55 51 53 51 49 42 44 35 42 33 34 33 30 36 32 22 20 19 19 22 27 28 31 25 12 11 4 20 38 32
50 63 68 75 56 42 29 36 45 42 37 32 34 39 43 53 52 46 42 33 35 39 36 30 30 32 23 17 15 13 11 13 14 18 27 31 33 36 24 17 6 25 33
54 55 51 31 23 17 26 32 30 29 25 26 27 29 40 46 42 40 34 37 35 27 28 28 28 20 15 11 10 9 14 13 10 12 14 25 30 26 29 26 14 24 24
51 35 19 16 23 29 31 33 31 31 32 33 36 36 37 38 35 32 31 30 29 23 23 18 15 12 13 10 10 13 15 17 12 12 13 20 27 27 25 22 26 14 28
28 24 24 31 35 35 33 31 35 40 38 38 38 36 36 34 34 33 30 25 21 18 12 12 12 10 7 6 9 11 13 14 15 13 12 15 21 24 24 24 18 24 26
33 34 40 42 38 36 37 38 39 43 42 41 42 40 38 36 33 29 22 19 16 13 15 15 13 10 8 8 13 15 16 15 14 13 13 19 23 23 22 26 28 25 29
50 51 49 44 42 42 43 47 51 49 47 42 39 36 33 29 23 21 21 17 15 15 21 18 11 6 8 12 18 20 17 16 15 16 16 18 24 24 20 22 23 26 30
59 56 54 49 49 52 55 57 53 47 40 34 29 28 23 20 17 21 22 18 18 16 20 16 6 11 12 17 25 25 21 17 18 16 19 19 22 27 23 24 26 28 32
58 57 54 56 60 60 58 54 49 43 39 40 33 27 22 20 17 19 18 20 19 23 19 9 8 11 16 18 19 13 11 18 16 19 21 23 24 24 22 22 27 29 31
62 59 58 61 60 59 55 50 46 40 42 35 26 27 21 12 10 22 19 12 26 22 9 7 6 11 14 13 3 2 7 13 18 22 22 23 21 22 21 23 26 28 28
63 62 63 61 61 59 55 49 47 48 45 37 28 25 20 11 10 26 19 23 29 16 10 7 5 10 11 6 7 3 6 11 13 16 21 17 15 12 17 18 25 29 39
59 63 64 62 63 60 56 49 52 47 41 40 29 24 18 17 21 20 22 31 23 17 12 7 4 11 10 7 5 5 4 4 11 15 20 17 20 22 17 14 19 31 48
64 66 65 64 60 58 53 51 52 43 39 38 29 14 24 22 22 26 26 26 17 16 12 7 3 10 11 11 8 5 6 6 13 12 20 31 27 14 16 19 28 40 43
61 65 63 60 56 51 51 50 46 39 35 36 26 19 25 22 23 22 23 25 19 16 14 9 2 7 10 9 8 7 5 11 18 19 20 19 14 15 29 43 47 49 64
57 61 60 59 57 53 53 52 47 41 35 33 22 23 26 20 30 28 21 23 21 19 17 10 6 9 11 9 7 9 10 15 21 19 22 12 25 26 40 52 57 61 56
52 63 63 62 59 57 56 53 49 44 41 32 24 21 25 24 21 19 20 20 21 19 17 13 9 7 4 4 6 10 9 17 24 26 18 28 38 37 41 54 60 62 69
58 66 66 65 62 61 56 54 52 47 40 32 27 24 24 22 22 17 15 17 20 21 19 15 9 4 5 2 6 9 6 10 30 30 29 37 43 41 49 53 52 57 57
70 69 64 66 63 61 58 55 54 39 35 35 31 26 25 23 19 14 15 16 18 21 22 19 16 10 8 8 10 11 8 15 36 37 36 44 45 37 53 47 45 42 50
74 66 63 68 66 64 59 52 45 40 37 36 31 27 23 20 16 8 17 17 16 14 20 19 17 15 12 13 14 14 14 20 33 37 39 43 43 45 46 46 44 43 51
72 65 65 70 68 65 58 45 42 42 38 39 32 30 27 22 13 9 15 11 9 11 17 21 19 20 15 18 19 20 22 29 39 42 44 43 43 42 42 41 49 45 50
64 67 68 71 67 65 56 47 43 44 39 42 36 33 31 23 16 9 16 9 5 3 3 14 15 17 17 19 18 17 28 31 40 46 46 44 44 48 46 46 50 46 51
37 52 68 70 62 62 53 46 44 43 36 47 43 38 34 27 20 9 21 15 8 4 6 7 7 8 15 19 19 20 29 29 34 46 49 48 47 49 57 53 56 53 52
Wind_Direction_850mb
278 285 285 285 285 272 278 276 260 248 250 235 232 233 238 241 241 242 233 228 219 225 223 213 225 237 255 271 270 278 285 284 281 271 264 263 255 248 240 234 234 233 227
279 282 290 283 273 273 270 262 243 241 241 233 235 234 238 238 239 235 222 217 216 222 206 211 226 243 263 271 282 286 286 284 274 265 267 265 259 247 238 234 231 231 227
272 281 282 281 279 274 258 251 256 250 238 239 237 235 236 235 224 216 212 204 205 213 215 225 226 247 268 278 279 285 280 277 265 252 238 226 245 262 225 225 227 228 224
274 277 278 286 288 286 282 260 245 237 234 235 236 235 233 217 210 205 191 193 199 204 208 216 233 255 274 276 281 267 265 264 257 245 232 228 257 235 216 220 228 228 226
268 271 278 286 286 283 283 260 235 223 230 234 231 226 223 211 196 186 197 190 183 191 206 223 242 261 272 270 251 257 260 262 259 247 241 231 229 239 241 212 216 220 219
270 280 280 282 281 275 259 222 212 215 218 220 216 213 209 198 179 182 185 181 182 194 209 228 248 262 257 238 245 238 256 259 258 248 235 232 235 236 243 238 266 207 212
285 280 277 273 259 220 188 188 182 174 173 175 177 180 192 196 195 185 188 189 196 216 231 245 259 242 233 238 237 243 253 263 273 275 256 235 230 235 240 244 235 203 198
269 254 235 201 168 158 154 154 155 155 155 156 161 172 183 183 180 185 190 199 205 220 242 253 222 225 226 245 239 253 258 256 259 260 259 234 221 221 222 227 229 198 207
222 205 175 161 153 148 155 155 151 146 150 159 162 168 172 171 175 181 183 194 218 227 230 209 194 209 198 207 240 253 272 257 244 245 241 229 205 205 222 218 227 235 203
182 169 157 156 152 151 147 147 148 147 152 156 156 156 158 167 175 180 191 201 213 210 190 168 166 178 214 253 271 275 273 254 237 238 237 226 215 220 223 218 222 222 230
168 162 156 154 151 149 150 150 149 149 150 151 151 152 158 169 178 188 188 185 173 160 155 154 159 190 260 283 283 282 267 248 231 231 232 221 213 216 229 228 222 220 220
163 160 155 154 152 149 151 152 152 153 155 154 151 154 165 171 178 190 183 175 160 159 169 165 193 270 278 285 289 282 255 243 230 221 212 216 215 216 222 235 234 218 209
158 157 155 157 152 152 154 155 155 154 147 138 136 144 144 150 160 169 168 169 163 157 155 176 225 270 302 298 293 279 261 231 219 214 214 217 214 221 231 234 223 207 204
158 160 158 158 156 158 158 158 155 151 148 143 147 151 146 164 154 167 159 182 162 158 167 176 249 298 317 322 328 241 235 218 222 214 209 210 221 233 221 211 213 195 196
159 165 163 160 161 161 160 159 154 149 154 157 158 151 157 173 187 165 167 164 156 162 159 191 298 338 343 7 49 194 207 209 217 223 204 197 202 225 202 205 193 195 172
164 168 166 163 165 165 165 161 160 164 168 177 167 157 176 159 155 169 177 165 160 161 181 177 16 5 7 5 54 131 103 198 195 167 168 177 171 150 136 160 187 172 171
170 171 171 170 169 169 167 165 164 175 187 189 170 177 164 156 169 151 150 162 166 174 180 188 12 6 9 19 16 32 80 122 157 158 152 151 148 139 161 161 152 161 162
178 176 174 174 173 170 168 164 170 180 192 184 171 175 165 166 171 174 179 178 174 182 184 208 299 347 351 13 27 23 112 116 142 148 158 151 148 155 161 152 149 154 152
195 181 177 172 169 168 166 174 182 190 188 172 175 172 170 169 173 179 189 183 187 196 199 224 265 321 327 357 38 72 101 131 131 126 143 146 137 146 160 146 144 158 144
209 192 183 179 176 173 172 177 184 184 175 177 165 160 180 175 173 186 193 190 193 208 213 224 253 301 306 22 70 95 101 139 138 137 120 125 135 146 147 147 153 152 154
212 200 189 186 182 179 179 187 191 187 182 177 163 167 171 173 179 189 192 194 206 215 217 217 232 238 179 102 116 110 97 151 148 140 131 129 141 136 145 147 149 153 159
204 201 193 196 188 185 188 192 192 184 186 174 169 182 174 182 183 192 185 188 203 214 220 221 218 204 182 160 147 125 102 134 152 147 141 139 145 147 156 152 151 156 156
204 199 197 200 192 192 192 191 188 180 190 182 185 185 179 187 196 203 184 191 204 221 211 203 197 190 175 168 160 141 125 136 153 149 142 145 147 151 156 165 160 157 158
195 199 199 198 193 195 193 192 186 182 194 191 192 195 190 182 179 177 188 209 214 200 194 189 193 189 185 174 164 153 150 149 152 150 147 151 158 154 162 166 172 164 163
190 197 195 195 193 193 192 188 188 191 198 197 197 200 195 189 174 181 185 171 130 83 135 187 197 202 195 176 166 163 159 158 162 156 156 159 165 170 169 175 178 177 174
170 190 191 193 192 192 190 190 194 195 199 200 201 201 198 197 186 173 186 174 153 126 125 134 164 166 171 165 158 157 161 160 166 169 170 171 173 176 176 177 180 183 184